Weather History for KSHL - May, 2013

Change the Weather History Date:

Wednesday, May 8, 2013

  Actual Average Record
Temperature  
Mean Temperature 58 °F -  
Max Temperature 62 °F 70 °F 87 °F (1970)
Min Temperature 55 °F 44 °F 27 °F (1954)
Degree Days  
Heating Degree Days 6    
Growing Degree Days 8 (Base 50)    
Moisture  
Dew Point 57 °F    
Average Humidity 98    
Maximum Humidity 100    
Minimum Humidity 82    
Precipitation  
Precipitation 0.99 in - - ()
Sea Level Pressure  
Sea Level Pressure 29.96 in    
Wind  
Wind Speed 6 mph (ESE)    
Max Wind Speed 14 mph    
Max Gust Speed -    
Visibility 6 miles    
Events Rain    
Averages and records for this station are not official NWS values.
T = Trace of Precipitation, MM = Missing Value Source: NWS Daily Summary

Daily Weather History Graph

Daily Weather History Graph

Search for Another Location

Airport or City:

Trip Planner

Search our weather history database for the weather conditions in past years. The results will help you decide how hot, cold, wet, or windy it might be!

Date:

Astronomy

May. 08, 2013 Rise Set
Actual Time 6:07 AM CDT 8:33 PM CDT
Civil Twilight 5:35 AM CDT 9:05 PM CDT
Nautical Twilight 4:55 AM CDT 9:45 PM CDT
Astronomical Twilight 4:10 AM CDT 10:30 PM CDT
Moon 5:17 AM CDT (5/8) 7:31 PM CDT (5/8)
Length of Visible Light 15h 30m
Length of Day
14h 25m
Waning Crescent, 2% of the Moon is Illuminated
May 8
Waning Crescent
May 9
New
May 17
First Quarter
May 24
Full
May 31
Last Quarter

Hourly Weather History & Observations

Time (CDT) Temp. Dew Point Humidity Pressure Visibility Wind Dir Wind Speed Gust Speed Precip Events Conditions
12:15 AM 57.2 °F 51.8 °F 82% 29.96 in 10.0 mi Calm Calm - N/A   Mostly Cloudy
12:35 AM 57.2 °F 51.8 °F 82% 29.96 in 10.0 mi Calm Calm - N/A   Overcast
12:55 AM 57.2 °F 53.6 °F 88% 29.97 in 10.0 mi Calm Calm - N/A   Overcast
1:15 AM 57.2 °F 51.8 °F 82% 29.98 in 10.0 mi SW 8.1 mph - N/A   Overcast
1:35 AM 57.2 °F 51.8 °F 82% 29.98 in 10.0 mi SW 4.6 mph - N/A   Overcast
1:55 AM 57.2 °F 51.8 °F 82% 29.97 in 9.0 mi Calm Calm - N/A Rain Light Rain
2:15 AM 57.2 °F 51.8 °F 82% 29.97 in 9.0 mi Calm Calm - N/A Rain Light Rain
2:35 AM 57.2 °F 53.6 °F 88% 29.96 in 9.0 mi Calm Calm - N/A   Light Drizzle
2:55 AM 55.4 °F 55.4 °F 100% 29.96 in 10.0 mi Calm Calm - N/A   Overcast
3:15 AM 55.4 °F 55.4 °F 100% 29.96 in 7.0 mi SE 4.6 mph - N/A   Overcast
3:35 AM 55.4 °F 55.4 °F 100% 29.97 in 6.0 mi SSE 4.6 mph - N/A Rain Light Rain
3:55 AM 55.4 °F 55.4 °F 100% 29.97 in 8.0 mi SSE 8.1 mph - N/A   Unknown
4:15 AM 55.4 °F 55.4 °F 100% 29.97 in 7.0 mi South 5.8 mph - N/A Rain Light Rain
4:35 AM 55.4 °F 55.4 °F 100% 29.97 in 6.0 mi South 9.2 mph - N/A Rain Light Rain
4:55 AM 55.4 °F 55.4 °F 100% 29.97 in 4.0 mi South 9.2 mph - 0.07 in Rain Rain
5:15 AM 55.4 °F 55.4 °F 100% 29.97 in 3.0 mi South 5.8 mph - N/A Rain Rain
5:35 AM 55.4 °F 55.4 °F 100% 29.97 in 3.0 mi SSE 3.5 mph - N/A Rain Light Rain
5:55 AM 55.4 °F 55.4 °F 100% 29.96 in 4.0 mi East 5.8 mph - 0.19 in Rain Rain
6:15 AM 55.4 °F 55.4 °F 100% 29.96 in 3.0 mi ESE 5.8 mph - N/A Rain Rain
6:35 AM 55.4 °F 55.4 °F 100% 29.97 in 3.0 mi SE 8.1 mph - N/A Rain Light Rain
6:55 AM 55.4 °F 55.4 °F 100% 29.96 in 1.8 mi ESE 6.9 mph - 0.25 in Rain Rain
7:15 AM 55.4 °F 55.4 °F 100% 29.96 in 1.8 mi ESE 8.1 mph - N/A Rain Light Rain
7:35 AM 55.4 °F 55.4 °F 100% 29.95 in 2.0 mi East 10.4 mph - N/A Rain Rain
7:55 AM 55.4 °F 55.4 °F 100% 29.97 in 1.8 mi SE 6.9 mph - 0.21 in Rain Light Rain
8:15 AM 55.4 °F 55.4 °F 100% 29.96 in 1.5 mi ESE 9.2 mph - N/A Rain Rain
8:35 AM 55.4 °F 55.4 °F 100% 29.97 in 1.8 mi ESE 8.1 mph - N/A Rain Light Rain
8:55 AM 55.4 °F 55.4 °F 100% 29.96 in 3.0 mi ESE 12.7 mph - 0.19 in Rain Light Rain
9:15 AM 57.2 °F 57.2 °F 100% 29.96 in 6.0 mi East 8.1 mph - N/A Rain Light Rain
9:35 AM 57.2 °F 57.2 °F 100% 29.96 in 6.0 mi East 9.2 mph - N/A   Light Drizzle
9:55 AM 57.2 °F 57.2 °F 100% 29.96 in 8.0 mi ESE 8.1 mph - N/A   Overcast
10:15 AM 59.0 °F 59.0 °F 100% 29.97 in 10.0 mi ESE 10.4 mph - N/A   Overcast
10:35 AM 59.0 °F 59.0 °F 100% 29.97 in 10.0 mi ESE 10.4 mph - N/A   Overcast
10:55 AM 59.0 °F 59.0 °F 100% 29.97 in 8.0 mi ESE 10.4 mph - N/A   Overcast
11:15 AM 59.0 °F 59.0 °F 100% 29.98 in 8.0 mi SE 9.2 mph - N/A   Overcast
11:35 AM 59.0 °F 59.0 °F 100% 29.98 in 8.0 mi ESE 11.5 mph - N/A   Overcast
11:55 AM 59.0 °F 59.0 °F 100% 29.98 in 7.0 mi ESE 12.7 mph - N/A   Overcast
12:15 PM 59.0 °F 59.0 °F 100% 29.98 in 6.0 mi ESE 11.5 mph - N/A   Overcast
12:35 PM 59.0 °F 59.0 °F 100% 29.98 in 7.0 mi SE 9.2 mph - N/A   Overcast
12:55 PM 59.0 °F 59.0 °F 100% 29.97 in 6.0 mi ESE 8.1 mph - N/A   Overcast
1:15 PM 60.8 °F 60.8 °F 100% 29.97 in 6.0 mi ESE 8.1 mph - N/A   Overcast
1:35 PM 60.8 °F 60.8 °F 100% 29.97 in 7.0 mi SE 5.8 mph - N/A   Overcast
1:55 PM 60.8 °F 60.8 °F 100% 29.97 in 7.0 mi SSE 4.6 mph - N/A   Overcast
2:15 PM 62.6 °F 59.0 °F 88% 29.97 in 7.0 mi South 5.8 mph - N/A Rain Light Rain
2:35 PM 60.8 °F 59.0 °F 94% 29.97 in 7.0 mi South 8.1 mph - N/A   Mostly Cloudy
2:55 PM 60.8 °F 60.8 °F 100% 29.97 in 4.0 mi South 4.6 mph - 0.01 in Rain Light Rain
3:15 PM 60.8 °F 60.8 °F 100% 29.96 in 3.0 mi SE 4.6 mph - N/A Rain Light Rain
3:35 PM 60.8 °F 60.8 °F 100% 29.96 in 3.0 mi ESE 4.6 mph - N/A Rain Light Rain
3:55 PM 60.8 °F 60.8 °F 100% 29.95 in 4.0 mi East 4.6 mph - 0.05 in Rain Light Rain
4:15 PM 60.8 °F 60.8 °F 100% 29.95 in 4.0 mi East 4.6 mph - N/A   Light Drizzle
4:35 PM 60.8 °F 60.8 °F 100% 29.94 in 5.0 mi East 6.9 mph - N/A Rain Light Rain
4:55 PM 60.8 °F 60.8 °F 100% 29.94 in 6.0 mi East 9.2 mph - 0.01 in   Partly Cloudy
5:15 PM 62.6 °F 62.6 °F 100% 29.94 in 6.0 mi ENE 9.2 mph - N/A   Mostly Cloudy
5:35 PM 60.8 °F 60.8 °F 100% 29.94 in 7.0 mi ENE 11.5 mph - N/A   Overcast
5:55 PM 60.8 °F 60.8 °F 100% 29.94 in 7.0 mi East 9.2 mph - N/A   Mostly Cloudy
6:15 PM 60.8 °F 60.8 °F 100% 29.94 in 7.0 mi ENE 10.4 mph - N/A   Mostly Cloudy
6:35 PM 62.6 °F 62.6 °F 100% 29.94 in 7.0 mi ENE 9.2 mph - N/A   Mostly Cloudy
6:55 PM 60.8 °F 60.8 °F 100% 29.94 in 7.0 mi ENE 12.7 mph - N/A   Overcast
7:15 PM 60.8 °F 60.8 °F 100% 29.94 in 8.0 mi ENE 13.8 mph - N/A   Overcast
7:35 PM 59.0 °F 59.0 °F 100% 29.94 in 3.0 mi ENE 13.8 mph - N/A Rain Light Rain
7:55 PM 59.0 °F 59.0 °F 100% 29.94 in 4.0 mi ENE 10.4 mph - 0.01 in   Overcast
8:15 PM 59.0 °F 59.0 °F 100% 29.95 in 4.0 mi ENE 9.2 mph - N/A   Overcast
8:35 PM 59.0 °F 59.0 °F 100% 29.95 in 5.0 mi ENE 11.5 mph - N/A   Mostly Cloudy
8:55 PM 57.2 °F 57.2 °F 100% 29.95 in 4.0 mi ENE 8.1 mph - N/A   Mostly Cloudy
9:15 PM 57.2 °F 57.2 °F 100% 29.96 in 4.0 mi NE 8.1 mph - N/A   Overcast
9:35 PM 57.2 °F 57.2 °F 100% 29.96 in 4.0 mi ENE 8.1 mph - N/A   Overcast
10:15 PM 55.4 °F 55.4 °F 100% 29.96 in 4.0 mi NE 9.2 mph - N/A   Overcast
10:35 PM 57.2 °F 57.2 °F 100% 29.96 in 4.0 mi NNE 9.2 mph - N/A   Overcast
11:55 PM 55.4 °F 55.4 °F 100% 29.95 in 3.0 mi NNE 6.9 mph - N/A   Overcast